Stations météo

réclame
Mon MeteoGroup
Kirkwall, Grande-Bretagne (3017): Température de l'air & dewpoint: 11.11.2017 22:00:00 - 17.11.2017 22:00:00 (GMT)Kirkwall, Grande-Bretagne (3017): Température de l'air -20cm & Température de l'air -100cm: 11.11.2017 22:00:00 - 17.11.2017 22:00:00 (GMT)Kirkwall, Grande-Bretagne (3017): Vitesse du vent & gusts: 11.11.2017 22:00:00 - 17.11.2017 22:00:00 (GMT)Kirkwall, Grande-Bretagne (3017): Direction du vent: 11.11.2017 22:00:00 - 17.11.2017 22:00:00 (GMT)Kirkwall, Grande-Bretagne (3017): reduced air pressure: 11.11.2017 22:00:00 - 17.11.2017 22:00:00 (GMT)Kirkwall, Grande-Bretagne (3017): visibility: 11.11.2017 22:00:00 - 17.11.2017 22:00:00 (GMT)Kirkwall, Grande-Bretagne (3017): Ensoleillement: 11.11.2017 22:00:00 - 17.11.2017 22:00:00 (GMT)Kirkwall, Grande-Bretagne (3017): Quantités de précipitations: 11.11.2017 22:00:00 - 17.11.2017 22:00:00 (GMT)
Date & Time tt [°C] td [°C] tt -20cm [°C] tt -100cm [°C] ff [km/h] ff [knt] fx [km/h] fx [knt] dd ppp [hPa] vv [km] sd [min] rr [mm]
17.11.2017 22:00:00 4,5 0,1 - - 42 23 68 37 WNW 1008,4 19 0 0,0
17.11.2017 21:00:00 5,7 0,9 - - 34 18 55 30 W 1008,2 21 0 0,0
17.11.2017 20:00:00 5,2 2,3 - - 31 17 52 28 W 1008,3 24 0 0,2
17.11.2017 19:00:00 5,4 3,0 - - 31 17 63 34 W 1008,9 20 0 0,2
17.11.2017 18:00:00 6,0 3,2 - - 37 20 68 37 W 1008,9 25 0 0,0
17.11.2017 17:00:00 5,4 4,3 - - 28 15 54 29 W 1009,6 16 0 1,0
17.11.2017 16:00:00 5,1 4,5 - - 24 13 68 37 W 1010,1 8 0 1,6
17.11.2017 15:00:00 5,5 4,3 - - 34 18 70 38 W 1010,6 12 0 3,4
17.11.2017 14:00:00 7,0 5,4 - - 37 20 68 37 W 1010,5 20 - 0,8
17.11.2017 13:00:00 5,6 4,0 - - 48 26 67 36 W 1012,2 3,6 - 2,8
17.11.2017 12:00:00 6,3 4,7 - - 42 23 74 40 W 1011,8 30 - 0,8
17.11.2017 11:00:00 6,7 4,3 - - 46 25 85 46 W 1012,8 1,7 0 0,6
17.11.2017 10:00:00 6,2 4,8 - - 42 23 76 41 W 1012,6 30 0 0,6
17.11.2017 09:00:00 6,7 5,3 - - 37 20 78 42 W 1012,8 9 0 1,2
17.11.2017 08:00:00 6,3 4,2 - - 41 22 81 44 W 1013,2 20 0 0,6
17.11.2017 07:00:00 6,9 4,9 - - 42 23 68 37 W 1012,8 14 0 0,8
17.11.2017 06:00:00 6,4 4,6 - - 55 30 91 49 W 1012,9 14 0 -
17.11.2017 05:00:00 7,0 4,4 - - 46 25 78 42 W 1013,1 14 0 0,2
17.11.2017 04:00:00 6,5 4,3 - - 48 26 80 43 W 1013,2 15 0 0,2
17.11.2017 03:00:00 7,0 4,1 - - 50 27 74 40 W 1013,7 17 0 0,2
17.11.2017 02:00:00 6,4 5,3 - - 44 24 91 49 W 1014,2 14 0 1,6
17.11.2017 01:00:00 7,1 4,6 - - 46 25 78 42 WSW 1014,3 15 0 0,2
17.11.2017 00:00:00 6,6 4,6 - - 42 23 72 39 W 1014,7 15 - 0,6
16.11.2017 23:00:00 6,8 2,9 - - 46 25 67 36 W 1014,8 20 0 0,0
16.11.2017 22:00:00 6,4 1,8 - - 35 19 61 33 W 1015,0 17 0 0,0
16.11.2017 21:00:00 6,3 1,7 - - 34 18 87 47 W 1014,8 15 0 0,0
16.11.2017 20:00:00 6,1 1,9 - - 50 27 80 43 W 1014,2 7 0 0,2
16.11.2017 19:00:00 5,6 1,5 - - 46 25 74 40 W 1013,4 19 0 0,2
16.11.2017 18:00:00 5,6 1,5 - - 41 22 57 31 W 1013,0 15 0 0,0
16.11.2017 17:00:00 3,8 2,4 - - 44 24 81 44 WNW 1013,0 14 0 0,0
16.11.2017 16:00:00 5,4 1,1 - - 42 23 80 43 W 1011,3 24 0 0,2
16.11.2017 15:00:00 3,6 1,3 - - 48 26 74 40 W 1010,6 22 0 0,8
16.11.2017 14:00:00 4,1 1,0 - - 52 28 91 49 W 1010,3 40 12 0,2
16.11.2017 13:00:00 6,0 2,0 - - 44 24 78 42 W 1008,9 17 30 0,0
16.11.2017 12:00:00 5,4 1,2 - - 46 25 70 38 W 1008,3 20 12 0,8
16.11.2017 11:00:00 6,8 0,3 - - 48 26 67 36 W 1007,1 19 12 0,0
16.11.2017 10:00:00 4,7 1,7 - - 37 20 67 36 W 1006,3 28 0 0,0
16.11.2017 09:00:00 5,8 2,2 - - 37 20 67 36 W 1005,2 21 0 0,0
16.11.2017 08:00:00 6,3 2,9 - - 39 21 81 44 W 1004,3 30 0 0,2
16.11.2017 07:00:00 7,1 3,9 - - 35 19 55 30 W 1003,1 20 0 0,0
16.11.2017 06:00:00 8,1 6,1 - - 37 20 55 30 W 1002,4 18 0 0,4
16.11.2017 05:00:00 8,0 7,2 - - 44 24 61 33 SW 1001,9 8 0 0,4
16.11.2017 04:00:00 8,5 7,8 - - 39 21 68 37 SW 1002,2 10 0 3,2
16.11.2017 03:00:00 9,6 7,7 - - 42 23 65 35 S 1001,5 35 - 0,0
16.11.2017 02:00:00 9,3 7,6 - - 41 22 61 33 S 1002,7 26 0 0,0
16.11.2017 01:00:00 8,7 7,2 - - 39 21 55 30 S 1004,3 21 - 0,0
16.11.2017 00:00:00 8,2 7,1 - - 37 20 54 29 S 1006,1 10 - 1,2
15.11.2017 23:00:00 8,1 7,1 - - 39 21 55 30 S 1007,7 11 0 1,0
15.11.2017 22:00:00 7,9 6,7 - - 41 22 59 32 S 1009,2 9 0 0,2
15.11.2017 21:00:00 8,4 5,8 - - 35 19 52 28 S 1010,9 23 0 0,0
15.11.2017 20:00:00 7,9 6,3 - - 29 16 - - S 1012,4 24 0 0,2
15.11.2017 19:00:00 7,6 5,6 - - 28 15 - - S 1013,9 17 0 -
15.11.2017 18:00:00 7,0 4,0 - - 22 12 - - S 1015,3 30 0 0,0
15.11.2017 17:00:00 6,2 5,1 - - 16 9 - - S 1016,4 26 0 0,0
15.11.2017 16:00:00 4,6 3,3 - - 15 8 - - S 1017,8 25 0 0,0
15.11.2017 15:00:00 5,8 3,7 - - 13 7 - - S 1018,7 23 0 0,0
15.11.2017 14:00:00 7,0 4,7 - - 15 8 - - SSW 1019,3 26 0 0,0
15.11.2017 13:00:00 6,9 4,8 - - 18 10 - - SSW 1019,8 18 0 0,0
15.11.2017 12:00:00 6,6 5,1 - - 16 9 - - SW 1020,2 30 0 0,4
15.11.2017 11:00:00 6,5 4,8 - - 18 10 - - WSW 1020,6 6 0 0,0
15.11.2017 10:00:00 6,0 3,4 - - 15 8 - - WSW 1020,4 24 0 0,0
15.11.2017 09:00:00 5,2 2,8 - - 16 9 - - WSW 1020,1 27 0 0,0
15.11.2017 08:00:00 4,8 2,5 - - 13 7 - - WSW 1019,7 20 0 0,0
15.11.2017 07:00:00 5,9 3,6 - - 24 13 - - WNW 1019,2 9 0 0,0
15.11.2017 06:00:00 4,3 2,2 - - 15 8 - - W 1018,4 18 0 0,0
15.11.2017 05:00:00 5,7 2,8 - - 21 11 - - W 1018,1 20 0 0,0
15.11.2017 04:00:00 5,9 2,6 - - 26 14 - - W 1017,7 23 0 0,0
15.11.2017 03:00:00 5,7 2,9 - - 15 8 - - W 1017,4 22 0 0,0
15.11.2017 02:00:00 5,5 2,7 - - 21 11 - - W 1016,8 20 0 0,2
15.11.2017 01:00:00 5,8 3,2 - - 18 10 50 27 W 1016,3 21 0 0,0
15.11.2017 00:00:00 5,9 2,9 - - 18 10 - - W 1015,5 20 - 0,0
14.11.2017 23:00:00 6,5 4,9 - - 18 10 - - W 1014,8 18 0 0,2
14.11.2017 22:00:00 6,5 5,3 - - 22 12 52 28 W 1014,0 20 0 0,6
14.11.2017 21:00:00 7,4 6,6 - - 22 12 - - W 1013,3 16 0 0,4
14.11.2017 20:00:00 7,4 6,6 - - 28 15 61 33 WSW 1013,1 3,0 0 1,8
14.11.2017 19:00:00 7,4 6,0 - - 26 14 52 28 WSW 1012,8 20 0 1,0
14.11.2017 18:00:00 8,1 6,0 - - 37 20 52 28 WSW 1012,7 22 0 0,0
14.11.2017 17:00:00 7,7 6,0 - - 31 17 54 29 SW 1012,6 22 0 0,2
14.11.2017 16:00:00 7,8 5,8 - - 28 15 46 25 WSW 1012,6 23 0 0,4
14.11.2017 15:00:00 8,0 6,2 - - 28 15 - - WSW 1012,9 20 0 0,0
14.11.2017 14:00:00 8,2 6,4 - - 22 12 - - WSW 1013,0 18 - 0,0
14.11.2017 13:00:00 8,3 6,5 - - 24 13 - - SW 1013,2 28 - 0,0
14.11.2017 12:00:00 7,5 5,8 - - 24 13 - - WSW 1013,2 30 - 0,2
14.11.2017 11:00:00 8,1 5,4 - - 21 11 - - WSW 1013,5 23 6 0,0
14.11.2017 10:00:00 6,8 5,5 - - 15 8 - - WSW 1013,2 18 - 0,0
14.11.2017 09:00:00 5,8 4,8 - - 13 7 - - W 1012,8 18 - 0,0
14.11.2017 08:00:00 7,2 4,8 - - 24 13 - - W 1012,6 30 0 -
14.11.2017 07:00:00 6,7 5,2 - - 22 12 - - W 1011,8 23 0 0,0
14.11.2017 06:00:00 7,0 5,1 - - 26 14 - - W 1011,4 30 0 0,0
14.11.2017 05:00:00 5,8 4,5 - - 21 11 - - W 1010,8 20 0 0,2
14.11.2017 04:00:00 7,1 5,2 - - 22 12 - - W 1010,2 22 0 0,0
14.11.2017 03:00:00 7,3 5,7 - - 16 9 - - W 1009,8 19 0 0,0
14.11.2017 02:00:00 7,7 6,4 - - 22 12 - - W 1009,2 20 0 0,0
14.11.2017 01:00:00 7,6 6,7 - - 22 12 - - WNW 1008,8 15 - 0,6
14.11.2017 00:00:00 8,4 6,2 - - 21 11 - - W 1008,1 10 - 0,0
13.11.2017 23:00:00 8,4 5,9 - - 21 11 - - W 1007,8 13 - 0,0
13.11.2017 22:00:00 8,2 6,9 - - 21 11 - - W 1007,5 12 - 0,0
13.11.2017 21:00:00 8,7 8,5 - - 22 12 - - WNW 1007,5 15 0 1,4
13.11.2017 20:00:00 7,4 7,3 - - 26 14 - - SSW 1007,1 5 0 1,2
13.11.2017 19:00:00 6,9 6,6 - - 28 15 - - SSW 1007,9 30 0 0,8
13.11.2017 18:00:00 6,5 6,3 - - 35 19 52 28 SSW 1008,9 8 0 2,8
13.11.2017 17:00:00 5,7 5,3 - - 35 19 52 28 S 1010,0 8 0 1,8
13.11.2017 16:00:00 5,0 4,5 - - 39 21 52 28 S 1011,5 8 0 1,6
13.11.2017 15:00:00 4,9 4,2 - - 39 21 50 27 S 1013,3 7 0 0,8
13.11.2017 14:00:00 5,0 3,2 - - 31 17 - - S 1015,1 30 0 0,0
13.11.2017 13:00:00 4,7 3,2 - - 28 15 - - S 1017,1 50 0 0,0
13.11.2017 12:00:00 4,0 2,1 - - 26 14 - - S 1018,7 50 0 0,0
13.11.2017 11:00:00 3,8 3,0 - - 18 10 - - SSW 1020,1 45 0 0,2
13.11.2017 10:00:00 3,6 1,6 - - 21 11 - - SW 1021,0 30 0 -
13.11.2017 09:00:00 3,8 0,0 6,7 9,0 5 3 - - S 1021,8 40 0 0,0
13.11.2017 08:00:00 4,3 -1,0 - - 11 6 - - W 1021,6 30 0 0,0
13.11.2017 07:00:00 2,8 0,3 - - 5 3 - - WSW 1022,1 45 0 0,0
13.11.2017 06:00:00 2,5 0,3 - - 9 5 - - WSW 1022,5 50 0 0,0
13.11.2017 05:00:00 2,3 0,2 - - 9 5 - - WSW 1022,7 50 0 0,0
13.11.2017 04:00:00 2,4 0,1 - - 9 5 - - W 1022,7 40 0 0,0
13.11.2017 03:00:00 2,3 -0,1 - - 13 7 - - W 1023,2 45 0 -
13.11.2017 02:00:00 4,2 0,7 - - 21 11 - - NNW 1023,3 45 0 0,0
13.11.2017 01:00:00 3,6 0,3 - - 15 8 - - NW 1023,5 30 0 0,0
13.11.2017 00:00:00 3,8 0,7 - - 16 9 - - NW 1023,3 30 - 0,0
12.11.2017 23:00:00 4,2 0,7 - - 24 13 46 25 NNW 1023,1 35 0 0,2
12.11.2017 22:00:00 4,1 2,2 - - 21 11 54 29 NNW 1022,7 3,9 - 0,2
12.11.2017 21:00:00 5,5 2,3 - - 35 19 48 26 NNW 1022,3 24 0 -
12.11.2017 20:00:00 5,5 0,9 - - 39 21 68 37 N 1021,7 25 0 0,4
12.11.2017 19:00:00 4,9 1,7 - - 35 19 63 34 NNW 1021,2 7 0 0,0
12.11.2017 18:00:00 5,4 2,2 - - 34 18 65 35 NNW 1019,9 29 0 0,4
12.11.2017 17:00:00 4,4 2,3 - - 42 23 61 33 N 1019,2 9 0 0,0
12.11.2017 16:00:00 5,6 1,3 - - 46 25 65 35 N 1017,8 28 0 0,0
12.11.2017 15:00:00 4,5 2,5 - - 52 28 72 39 N 1017,2 7 6 0,0
12.11.2017 14:00:00 4,9 2,9 - - 48 26 63 34 N 1016,0 30 - 0,2
12.11.2017 13:00:00 6,2 2,7 - - 42 23 61 33 NNW 1015,0 30 54 -
12.11.2017 12:00:00 6,0 2,7 - - 37 20 61 33 NNW 1014,1 24 6 0,4
12.11.2017 11:00:00 6,2 3,0 - - 29 16 54 29 N 1012,9 26 18 0,0
12.11.2017 10:00:00 6,0 3,0 - - 37 20 55 30 NNW 1011,7 30 12 0,2
12.11.2017 09:00:00 4,5 3,0 7,0 9,2 48 26 67 36 N 1010,8 6 0 0,0
12.11.2017 08:00:00 5,1 3,1 - - 41 22 63 34 NNW 1009,1 13 0 0,2
12.11.2017 07:00:00 4,8 3,0 - - 39 21 63 34 NNW 1008,1 35 0 0,8
12.11.2017 06:00:00 4,6 2,1 - - 39 21 61 33 NW 1006,9 40 0 1,0
12.11.2017 05:00:00 5,2 1,6 - - 37 20 57 31 NNW 1006,0 28 0 0,0
12.11.2017 04:00:00 5,5 0,9 - - 39 21 54 29 NNW 1005,0 30 0 0,0
12.11.2017 03:00:00 5,5 1,1 - - 28 15 50 27 NW 1004,6 24 0 0,0
12.11.2017 02:00:00 5,3 0,1 - - 24 13 - - NW 1004,4 28 0 0,0
12.11.2017 01:00:00 4,4 2,1 - - 29 16 46 25 NW 1004,7 6 0 0,4
12.11.2017 00:00:00 4,1 2,4 - - 16 9 - - W 1004,6 19 - 0,0
11.11.2017 23:00:00 5,2 2,4 - - 21 11 - - NW 1004,4 23 0 0,0
11.11.2017 22:00:00 4,5 3,2 - - 13 7 - - WNW 1004,7 20 0 0,2

tt = Température de l'air
td = dewpoint
tt -20cm = Température de l'air -20cm
tt -100cm = Température de l'air -100cm
ff = Vitesse du vent
fx = gusts
dd = Direction du vent
ppp = reduced air pressure
vv = visibility
sd = Ensoleillement
rr = Quantités de précipitations

stations d'obs. à proximité